Wind_Speed
10 9 8 8 6 7 7 8 9 9 8 7 6 5 5 4 3 3 2 2 2 2 2 1 1 0 0 0 0 1 1 2 2 3 3 4 4 5 6 6 7 7 7 7 7 8 8 9 9
8 6 6 7 6 7 7 8 9 8 7 7 6 6 5 4 3 3 3 2 3 3 3 3 3 2 2 2 2 3 3 3 3 4 4 5 5 6 6 6 7 7 7 7 7 7 7 8 8
5 5 6 6 6 6 7 9 8 8 8 7 6 5 5 4 4 4 4 5 5 5 5 5 5 5 5 5 5 5 5 5 5 5 5 6 6 6 6 7 7 7 7 6 6 6 7 7 7
5 6 6 5 5 6 7 9 9 9 9 8 7 6 5 5 5 6 6 6 7 7 7 7 7 7 7 8 7 8 8 8 8 8 7 7 7 7 7 7 7 7 7 7 7 7 7 7 6
5 6 7 6 6 7 7 8 8 9 8 8 8 7 7 7 7 7 8 8 8 9 9 9 9 10 10 10 10 10 10 10 10 10 10 9 9 9 9 9 8 8 8 8 8 7 7 7 6
5 7 8 8 7 8 8 9 9 8 8 9 9 9 9 9 9 9 9 10 11 11 11 12 12 12 13 13 13 14 14 13 13 12 12 12 11 11 11 10 10 10 9 9 9 8 8 8 7
6 7 8 9 8 8 9 10 10 11 11 11 11 11 12 12 12 12 12 12 13 14 14 15 15 15 16 16 16 17 17 17 16 16 15 14 14 13 13 12 12 12 11 10 10 9 9 8 8
6 8 9 10 9 9 10 11 12 13 14 14 14 14 15 15 15 15 15 15 16 17 17 17 18 18 19 19 20 20 20 20 20 19 19 18 17 16 15 15 14 14 13 12 12 11 10 9 9
8 9 9 9 10 10 11 12 14 16 17 17 18 17 18 18 18 18 18 19 19 19 20 21 21 21 21 22 22 23 23 23 23 22 21 21 21 19 18 18 17 16 16 15 14 13 12 11 10
9 10 10 11 12 13 14 14 15 17 18 19 21 21 21 21 22 22 22 23 23 23 24 24 24 25 25 25 26 26 26 26 26 26 25 23 23 23 22 21 20 19 18 18 17 15 14 13 12
11 11 12 14 15 16 16 17 18 19 20 22 23 23 23 24 24 25 26 26 27 27 27 27 27 28 28 28 28 28 29 29 29 28 28 27 26 25 25 24 23 22 21 20 19 18 16 15 14
12 12 13 15 16 17 18 20 21 22 23 23 24 25 25 26 26 27 28 29 30 30 30 30 31 31 31 31 31 31 30 30 30 30 29 29 29 28 27 26 26 26 24 22 22 20 19 18 16
13 14 15 16 17 19 20 21 23 24 24 24 25 25 26 27 28 29 30 31 32 32 33 34 34 34 33 33 34 34 33 33 33 32 31 30 29 30 30 31 29 28 27 26 25 23 22 21 19
14 15 16 17 18 19 20 22 23 23 24 24 25 26 26 27 28 29 30 31 32 33 34 35 35 36 35 35 35 35 35 34 34 33 32 31 30 29 31 30 30 30 30 29 28 26 25 23 22
15 16 17 18 18 19 21 21 21 23 24 25 26 26 26 27 28 28 29 31 32 33 34 35 35 36 36 36 36 36 36 35 34 34 34 34 33 31 30 31 30 31 31 30 29 29 27 26 24
15 17 17 18 19 19 21 22 23 24 24 24 25 26 27 27 28 29 30 31 32 33 34 35 35 35 36 36 36 36 36 36 36 35 34 34 34 34 32 31 30 31 32 32 31 30 29 28 27
17 17 18 19 21 23 23 24 25 25 24 24 25 26 26 27 27 28 29 30 31 32 32 33 33 34 35 36 36 36 36 36 36 36 35 35 34 34 33 32 32 32 33 34 32 31 29 29 28
17 19 20 22 23 24 24 24 25 24 23 24 24 25 25 26 26 27 28 28 29 29 29 30 30 31 32 33 34 35 35 36 36 36 36 36 35 35 34 33 34 34 34 34 33 31 31 31 30
17 20 21 23 24 23 23 23 22 22 22 22 23 24 25 25 26 27 27 27 27 27 27 27 28 28 29 30 30 31 33 33 33 34 34 35 35 35 35 35 34 35 35 35 34 32 31 31 30
18 20 21 22 22 22 21 21 20 19 19 20 21 22 23 24 25 25 26 26 25 25 25 25 25 25 25 26 27 28 28 29 30 31 33 33 34 35 36 36 36 36 36 35 35 34 32 31 31
17 19 20 21 22 21 20 19 18 17 18 19 20 21 22 23 24 24 23 23 23 23 23 22 22 22 22 23 23 24 25 26 27 28 30 32 33 33 34 36 36 37 37 37 36 34 33 32 32
16 18 19 19 20 19 18 17 17 17 18 19 21 22 23 23 23 23 22 22 22 22 22 21 21 21 20 20 19 20 22 23 24 26 27 29 30 32 33 34 36 37 37 38 39 36 35 35 33
15 16 17 17 16 16 16 16 16 17 18 20 21 22 23 23 23 22 22 22 21 21 21 21 20 19 18 17 17 18 18 20 21 23 24 26 28 30 32 33 34 35 36 37 37 36 36 35 34
13 15 15 15 14 13 14 14 16 17 19 20 21 23 23 23 22 22 22 22 22 21 21 20 20 19 17 16 16 15 15 15 16 18 21 23 25 26 28 30 32 33 36 37 38 38 37 36 35
12 12 12 12 11 11 12 13 15 17 18 19 21 22 23 23 22 22 22 22 22 21 21 20 19 18 16 15 14 14 13 12 13 14 15 17 20 22 24 26 29 31 33 35 36 37 37 37 36
10 10 10 10 10 11 11 13 14 16 17 18 20 22 22 22 22 22 22 22 22 22 21 21 19 17 16 15 14 13 12 10 10 10 11 12 14 17 20 22 25 27 30 32 34 36 37 36 35
8 8 9 9 10 10 11 12 13 15 16 17 19 21 22 22 21 21 22 22 22 22 22 21 20 19 17 16 15 14 12 10 9 8 8 7 9 12 15 18 20 23 25 28 30 33 34 34 33
7 7 8 8 9 10 11 12 13 14 16 17 19 20 21 22 21 22 22 22 22 22 22 22 21 20 19 18 16 15 14 12 9 8 6 5 6 8 11 14 17 19 22 25 27 29 31 31 31
5 6 7 8 9 10 10 12 13 14 15 17 18 20 21 21 21 22 22 22 23 23 23 23 22 21 21 20 19 17 16 14 11 9 8 5 5 6 7 9 11 14 17 19 21 24 27 28 29
5 6 7 8 9 10 11 11 12 13 15 17 18 19 20 21 21 22 22 22 23 23 23 23 23 22 21 20 19 18 17 16 14 12 10 8 6 5 5 6 7 9 11 14 17 19 22 25 26
Wind_Direction
58 55 48 41 35 41 44 50 52 53 54 52 44 39 41 32 18 359 359 2 335 326 336 349 7 35 79 144 204 230 240 238 238 242 245 247 249 250 252 253 254 254 255 254 256 258 259 260 263
57 46 39 27 29 38 44 50 49 45 45 45 34 25 22 16 353 337 322 300 295 294 293 292 291 285 272 258 252 252 253 253 250 248 248 251 255 255 257 257 255 252 253 255 258 260 265 267 267
43 23 20 11 27 37 42 45 43 34 29 27 20 14 9 357 336 316 303 297 290 283 282 280 277 274 270 265 260 257 256 256 254 252 252 252 254 256 257 256 254 253 255 257 259 263 269 273 274
10 353 355 356 29 30 34 33 29 24 15 6 359 353 346 337 324 312 302 298 290 284 280 275 273 267 266 264 262 260 258 257 256 255 255 255 255 256 256 255 255 256 257 258 260 263 269 274 278
352 343 339 350 18 20 25 20 16 11 358 350 345 336 328 324 316 304 298 295 289 282 278 274 271 267 263 263 262 261 260 258 257 257 257 256 256 256 256 256 257 257 258 259 260 263 268 272 275
332 333 337 339 354 357 0 1 358 344 338 336 330 321 318 314 309 300 293 289 286 280 277 276 272 268 265 263 260 259 258 258 258 257 257 257 256 255 255 256 257 257 258 259 260 261 265 269 271
315 321 324 328 335 337 343 344 336 329 325 324 319 313 311 307 302 297 293 288 284 280 277 272 270 268 266 265 263 260 257 256 256 255 255 255 255 255 254 255 255 255 256 257 258 259 260 263 267
298 306 311 312 315 321 329 332 325 321 319 316 313 310 307 303 298 294 290 286 284 280 277 274 271 267 265 263 262 260 257 256 257 256 254 254 254 254 254 254 255 254 254 255 256 257 257 258 262
295 293 298 303 311 316 319 318 316 314 313 311 309 306 304 300 296 292 288 285 281 279 278 277 274 270 267 263 262 261 259 257 255 256 255 254 253 253 253 253 254 254 254 254 254 254 254 254 256
287 290 295 303 307 312 312 311 310 308 306 305 304 303 300 297 295 291 288 285 282 278 275 275 272 269 268 266 265 261 262 259 256 255 254 253 253 252 253 254 254 253 253 252 252 252 253 252 252
283 287 294 302 306 311 311 310 309 306 303 302 301 300 297 295 293 291 288 285 283 280 278 275 272 270 269 267 264 263 263 262 257 255 255 252 251 252 252 252 252 251 252 251 250 251 251 251 251
283 288 297 304 307 310 310 309 308 307 306 304 302 299 297 294 292 290 288 286 284 283 280 278 276 274 270 267 265 263 263 262 260 258 257 255 252 250 249 251 251 249 249 250 249 248 249 250 250
289 291 300 305 307 308 307 306 306 306 306 305 303 302 299 297 294 292 289 287 285 283 281 279 277 275 272 269 267 266 264 262 261 260 260 257 255 251 251 249 250 249 246 247 248 247 248 249 249
293 299 304 306 307 306 305 304 304 306 306 307 306 303 300 297 294 292 290 288 286 284 282 280 278 276 274 270 268 267 265 264 261 260 259 258 257 255 253 253 251 247 245 246 246 246 246 248 248
294 300 303 305 306 306 307 306 306 308 309 310 308 306 303 300 297 294 292 291 289 288 286 283 280 278 276 273 271 269 266 263 261 259 259 257 255 255 254 253 253 248 244 246 247 246 246 245 245
294 298 300 303 306 310 314 317 315 314 313 312 310 307 304 302 300 298 296 295 293 291 289 285 281 278 277 275 273 271 267 263 261 259 258 256 255 254 253 252 251 249 244 244 246 246 246 245 244
291 296 302 308 312 316 318 319 319 318 318 316 314 311 308 305 303 302 300 298 296 294 292 288 284 280 277 275 274 272 268 265 262 259 257 256 254 252 251 252 251 251 247 245 244 245 245 244 243
298 304 312 316 317 319 321 321 322 321 321 320 318 316 314 312 310 308 306 304 302 299 295 292 289 286 281 278 275 272 268 265 262 259 256 255 254 252 251 250 249 248 247 246 243 243 243 242 242
307 313 315 316 318 320 322 323 323 324 324 322 320 319 319 317 316 314 312 310 309 306 302 297 293 289 285 281 278 274 269 266 262 258 255 252 251 250 250 249 246 245 244 242 241 241 241 241 241
308 311 314 315 318 322 323 324 325 326 328 326 325 326 325 324 322 320 318 317 315 312 308 305 300 295 290 286 280 276 271 267 264 258 253 250 248 248 248 248 246 245 243 243 241 240 240 241 241
306 311 314 317 319 322 323 325 329 333 334 333 334 335 334 333 331 329 327 325 323 320 317 312 308 304 299 293 285 277 272 268 264 260 256 252 249 247 246 245 245 244 242 241 240 238 237 237 239
306 311 315 318 320 321 326 330 337 341 343 343 343 342 342 340 338 335 334 332 330 327 324 320 316 312 308 301 293 284 277 270 265 261 257 252 249 248 247 246 245 243 242 240 238 238 237 237 239
309 314 317 319 319 321 329 337 348 352 352 351 349 348 346 344 343 341 340 339 337 334 331 329 327 323 316 309 300 293 286 278 270 264 260 255 252 250 247 246 244 242 241 238 236 236 236 237 238
315 320 322 322 324 328 337 346 356 359 357 355 354 352 350 349 348 348 348 347 346 344 341 339 337 332 325 320 314 306 298 289 280 272 265 258 253 250 247 244 242 241 240 238 235 234 234 234 236
322 327 328 330 335 343 351 359 3 2 358 357 356 355 355 355 356 355 355 355 355 354 353 351 348 345 340 335 332 326 314 304 294 284 272 261 253 248 246 244 241 240 239 236 235 233 232 233 235
333 340 343 346 352 359 3 7 6 3 1 0 1 1 1 360 1 1 1 3 4 4 2 360 358 356 355 351 347 344 334 323 311 299 283 266 254 250 248 245 242 240 238 237 235 233 234 234 235
346 352 357 2 7 12 12 10 10 6 7 6 6 6 6 6 6 7 7 8 9 9 9 11 10 8 7 5 2 359 355 347 336 322 304 278 261 253 250 246 243 240 238 237 236 235 235 236 235
2 7 12 16 16 17 15 13 14 12 12 12 11 11 12 13 14 14 14 15 15 15 16 16 17 17 17 16 15 12 7 2 356 347 333 302 280 265 260 251 245 241 240 238 235 235 235 235 236
16 21 24 25 23 20 21 19 17 18 18 18 16 16 16 17 17 17 18 19 19 21 20 20 20 21 21 22 21 18 17 14 9 4 356 339 306 288 269 258 248 241 237 234 231 233 232 233 235
44 41 36 31 28 25 23 25 24 25 24 22 21 19 18 19 20 20 20 20 21 22 22 23 23 23 23 22 22 22 21 19 17 15 12 6 354 329 302 275 256 245 238 232 230 231 231 231 231
Height
5932 5932 5931 5932 5932 5931 5930 5929 5928 5927 5927 5926 5925 5924 5924 5923 5923 5924 5921 5919 5919 5919 5918 5917 5917 5916 5916 5916 5916 5916 5916 5916 5916 5916 5916 5916 5916 5916 5915 5915 5915 5915 5915 5914 5914 5914 5913 5913 5913
5934 5932 5933 5933 5932 5931 5931 5930 5929 5928 5928 5926 5926 5925 5924 5923 5922 5921 5920 5919 5919 5919 5918 5918 5917 5917 5916 5916 5916 5916 5916 5915 5915 5915 5915 5915 5915 5915 5915 5914 5914 5914 5914 5914 5913 5913 5913 5912 5912
5935 5934 5934 5934 5932 5932 5931 5930 5929 5928 5927 5927 5926 5926 5925 5924 5923 5921 5920 5919 5919 5918 5918 5917 5917 5917 5916 5916 5916 5915 5915 5915 5915 5915 5915 5915 5914 5914 5914 5914 5914 5913 5913 5913 5913 5913 5912 5912 5911
5936 5936 5936 5935 5933 5932 5931 5930 5929 5928 5928 5927 5926 5925 5924 5924 5923 5921 5919 5919 5918 5917 5917 5917 5916 5916 5916 5915 5915 5915 5914 5914 5914 5914 5914 5913 5913 5913 5913 5913 5913 5913 5912 5912 5912 5912 5912 5911 5911
5937 5936 5936 5934 5933 5932 5930 5930 5929 5928 5928 5927 5926 5925 5924 5923 5922 5920 5919 5917 5917 5916 5915 5915 5915 5914 5914 5914 5914 5913 5913 5913 5913 5913 5912 5912 5912 5912 5912 5912 5912 5912 5911 5911 5911 5911 5911 5910 5910
5938 5937 5936 5934 5933 5932 5931 5930 5929 5928 5927 5926 5925 5924 5922 5922 5921 5919 5917 5916 5915 5914 5913 5913 5912 5912 5912 5912 5911 5911 5911 5911 5911 5911 5911 5911 5910 5910 5910 5910 5910 5910 5910 5910 5910 5910 5910 5909 5909
5938 5936 5935 5934 5933 5931 5930 5929 5928 5927 5926 5925 5924 5922 5921 5920 5919 5917 5916 5914 5912 5911 5911 5910 5910 5909 5909 5909 5908 5908 5908 5908 5908 5908 5908 5908 5908 5908 5908 5908 5908 5908 5908 5908 5908 5908 5908 5908 5908
5938 5937 5935 5933 5932 5931 5929 5928 5926 5925 5924 5923 5921 5920 5919 5918 5916 5915 5913 5912 5910 5909 5907 5907 5906 5905 5905 5905 5904 5904 5904 5904 5904 5904 5904 5905 5905 5905 5905 5906 5906 5906 5906 5906 5907 5907 5907 5907 5907
5937 5936 5933 5932 5931 5930 5928 5927 5925 5922 5921 5920 5918 5917 5915 5914 5912 5911 5910 5908 5907 5906 5904 5903 5902 5901 5900 5900 5899 5899 5899 5899 5899 5900 5900 5901 5901 5902 5902 5902 5903 5903 5903 5904 5904 5904 5905 5905 5905
5935 5934 5932 5931 5929 5927 5926 5925 5923 5921 5919 5917 5915 5913 5911 5910 5908 5906 5905 5904 5902 5901 5900 5898 5897 5896 5895 5895 5894 5894 5894 5894 5894 5894 5895 5896 5896 5897 5898 5898 5899 5899 5900 5901 5901 5902 5902 5903 5903
5933 5932 5930 5928 5926 5924 5923 5921 5919 5918 5916 5914 5912 5910 5907 5905 5903 5901 5899 5897 5896 5894 5893 5892 5891 5890 5889 5889 5888 5888 5888 5888 5888 5889 5889 5890 5891 5892 5893 5893 5894 5895 5896 5897 5898 5899 5899 5900 5901
5930 5929 5927 5926 5924 5922 5919 5917 5915 5913 5911 5909 5907 5905 5902 5900 5898 5896 5893 5891 5889 5887 5886 5885 5883 5883 5882 5881 5881 5881 5881 5881 5881 5882 5883 5884 5885 5886 5887 5888 5888 5889 5891 5892 5893 5895 5896 5897 5898
5928 5926 5925 5924 5922 5919 5917 5914 5911 5909 5907 5904 5902 5899 5897 5894 5892 5889 5887 5884 5882 5880 5878 5876 5875 5874 5874 5873 5873 5873 5874 5874 5874 5875 5876 5877 5878 5879 5880 5881 5882 5883 5885 5887 5888 5890 5891 5893 5894
5925 5924 5923 5921 5919 5917 5914 5911 5908 5905 5902 5900 5897 5894 5891 5888 5885 5882 5880 5877 5874 5872 5870 5868 5866 5865 5864 5864 5864 5864 5865 5865 5866 5867 5868 5870 5871 5872 5873 5874 5875 5876 5879 5880 5882 5884 5886 5888 5890
5923 5922 5920 5918 5916 5914 5911 5908 5904 5901 5898 5895 5892 5888 5885 5882 5879 5875 5872 5869 5867 5864 5861 5859 5857 5856 5855 5854 5854 5854 5855 5856 5857 5858 5860 5861 5863 5864 5866 5867 5869 5870 5872 5874 5876 5878 5880 5882 5884
5920 5919 5918 5915 5912 5910 5908 5904 5900 5896 5893 5890 5886 5882 5879 5875 5872 5869 5865 5862 5859 5855 5853 5850 5848 5846 5845 5844 5844 5844 5844 5845 5847 5849 5850 5852 5854 5856 5857 5859 5861 5863 5865 5867 5869 5871 5873 5876 5878
5917 5915 5914 5912 5908 5905 5903 5899 5895 5891 5888 5884 5880 5876 5873 5869 5866 5862 5858 5855 5851 5847 5844 5841 5839 5837 5836 5835 5834 5834 5834 5835 5836 5838 5840 5842 5844 5847 5849 5851 5853 5855 5857 5859 5861 5864 5866 5869 5872
5913 5911 5909 5907 5904 5901 5898 5894 5891 5887 5883 5879 5875 5871 5867 5864 5860 5855 5851 5847 5843 5839 5836 5833 5830 5828 5826 5825 5824 5824 5824 5824 5825 5827 5830 5832 5835 5837 5840 5842 5844 5846 5849 5851 5854 5857 5859 5862 5865
5910 5907 5905 5903 5899 5897 5894 5890 5887 5883 5880 5875 5871 5867 5862 5858 5854 5849 5845 5841 5837 5833 5829 5826 5823 5820 5818 5816 5815 5814 5814 5814 5815 5817 5819 5822 5824 5827 5830 5833 5835 5838 5840 5843 5846 5849 5852 5855 5858
5907 5905 5902 5899 5896 5893 5890 5887 5884 5880 5876 5872 5868 5863 5858 5853 5849 5844 5839 5835 5831 5827 5823 5819 5815 5813 5810 5808 5807 5806 5805 5805 5806 5807 5809 5811 5814 5817 5820 5823 5826 5829 5831 5834 5838 5841 5844 5847 5850
5904 5902 5899 5896 5893 5890 5887 5885 5882 5878 5873 5869 5864 5859 5854 5849 5844 5840 5835 5830 5826 5822 5817 5814 5810 5807 5804 5801 5799 5798 5797 5797 5797 5798 5800 5802 5804 5807 5810 5813 5816 5819 5822 5825 5829 5832 5835 5839 5842
5902 5899 5896 5893 5890 5887 5885 5882 5879 5875 5870 5866 5861 5856 5851 5846 5841 5836 5832 5827 5822 5818 5813 5809 5805 5802 5798 5795 5793 5791 5790 5789 5789 5790 5791 5793 5795 5798 5800 5803 5806 5808 5812 5816 5819 5823 5827 5830 5834
5899 5896 5894 5891 5888 5886 5883 5880 5877 5872 5868 5863 5859 5854 5849 5844 5839 5834 5829 5824 5819 5815 5810 5805 5801 5797 5794 5791 5788 5786 5784 5783 5782 5783 5783 5784 5786 5788 5791 5794 5796 5799 5803 5806 5810 5814 5818 5822 5825
5896 5894 5891 5889 5887 5884 5881 5878 5875 5870 5866 5862 5857 5852 5847 5842 5837 5832 5827 5822 5817 5812 5807 5802 5798 5794 5790 5787 5784 5782 5780 5778 5777 5776 5776 5777 5778 5780 5782 5785 5788 5791 5794 5797 5801 5805 5809 5813 5816
5894 5893 5890 5887 5885 5883 5879 5876 5874 5869 5866 5861 5857 5852 5847 5841 5836 5831 5826 5821 5815 5810 5805 5800 5796 5791 5788 5784 5781 5778 5776 5773 5772 5771 5770 5770 5771 5773 5775 5777 5779 5782 5785 5788 5792 5796 5800 5804 5808
5892 5891 5889 5887 5884 5881 5878 5875 5873 5869 5865 5861 5856 5852 5846 5841 5836 5831 5826 5821 5815 5810 5805 5800 5795 5790 5786 5782 5779 5776 5773 5771 5769 5767 5766 5766 5766 5767 5768 5770 5772 5774 5777 5780 5783 5788 5791 5795 5799
5891 5889 5887 5885 5883 5880 5878 5876 5872 5869 5865 5861 5857 5852 5847 5842 5836 5831 5826 5821 5816 5811 5805 5800 5795 5790 5786 5782 5778 5775 5772 5769 5767 5765 5763 5762 5762 5763 5764 5765 5766 5768 5770 5773 5776 5780 5783 5787 5790
5890 5888 5887 5885 5882 5880 5878 5875 5873 5868 5865 5861 5857 5852 5847 5842 5837 5832 5827 5822 5817 5812 5807 5801 5796 5791 5787 5783 5779 5775 5772 5769 5766 5764 5762 5761 5760 5760 5760 5760 5762 5763 5765 5767 5770 5773 5776 5780 5783
5890 5888 5886 5884 5882 5880 5878 5878 5873 5869 5866 5862 5858 5853 5849 5844 5839 5834 5829 5824 5819 5814 5809 5803 5798 5793 5789 5784 5780 5776 5773 5769 5766 5763 5761 5760 5758 5758 5757 5757 5757 5758 5760 5761 5764 5766 5770 5773 5776
5889 5888 5886 5885 5883 5880 5878 5879 5873 5870 5866 5862 5858 5854 5850 5846 5841 5836 5831 5826 5821 5816 5811 5806 5800 5795 5790 5786 5782 5778 5774 5770 5767 5764 5761 5759 5758 5756 5755 5755 5755 5755 5756 5757 5759 5761 5764 5767 5770